This demonstration page uses our WeatherBlox Daily Observations layout. Learn more.

Left ArrowRight Arrow

Hourly Observations for May 22, 2018

Temp ( °F °C ) Dew Point ( °F °C ) Humidity (%) Winds ( mph kmh ) Pressure ( in mb ) Visibility ( mi km ) Precip ( " mm )
12:53 am 00:53 Clear 60 15.6 54 12.2 80 80 W 3 6 29.85 1011 10 16 N/A
1:53 am 01:53 Cloudy 58 14.4 54 12.2 87 87 W 5 7 29.86 1011 10 16 N/A
2:53 am 02:53 Clear 57 13.9 51 10.6 81 81 WNW 3 6 29.87 1012 10 16 N/A
3:53 am 03:53 Mostly Clear 54 12.2 49 9.4 83 83 WSW 8 13 29.89 1012 10 16 N/A
4:53 am 04:53 Mostly Cloudy 52 11.1 49 9.4 89 89 SW 7 11 29.90 1012 10 16 N/A
5:53 am 05:53 Partly Cloudy 51 10.6 48 8.9 89 89 WNW 3 6 29.91 1013 10 16 N/A
6:53 am 06:53 Cloudy 53 11.7 49 9.4 86 86 S 3 6 29.93 1013 10 16 N/A
7:53 am 07:53 Partly Cloudy 57 13.9 51 10.6 81 81 N N/A 29.93 1014 10 16 N/A
8:53 am 08:53 Sunny 62 16.7 49 9.4 62 62 S 5 7 29.95 1014 10 16 N/A
9:53 am 09:53 Mostly Sunny 66 18.9 50 10 56 56 SSW 5 7 29.96 1014 10 16 N/A
10:53 am 10:53 Sunny 74 23.3 50 10 43 43 N N/A 29.94 1014 10 16 N/A
11:53 am 11:53 Sunny 77 25 45 7.2 32 32 N N/A 29.94 1014 10 16 N/A
12:53 pm 12:53 Sunny 78 25.6 42 5.6 28 28 NNE 3 6 29.93 1013 10 16 N/A
1:53 pm 13:53 Mostly Sunny 79 26.1 40 4.4 25 25 NNW 8 13 29.91 1013 10 16 N/A
2:53 pm 14:53 Sunny 80 26.7 38 3.3 22 22 VRB 6 9 29.90 1013 10 16 N/A
3:53 pm 15:53 Sunny 80 26.7 38 3.3 22 22 N 7 11 29.89 1012 10 16 N/A
4:53 pm 16:53 Sunny 79 26.1 39 3.9 24 24 NNW 5 7 29.89 1012 10 16 N/A
5:26 pm 17:26 Mostly Sunny 74 23.3 51 10.6 45 45 SW 17 28 29.80 1009 10 16 N/A
5:53 pm 17:53 Mostly Sunny 73 22.8 51 10.6 46 46 WSW 17 28 29.90 1013 10 16 N/A
6:53 pm 18:53 Sunny 74 23.3 50 10 43 43 SW 12 19 29.89 1012 10 16 N/A
7:53 pm 19:53 Sunny 71 21.7 50 10 47 47 SW 10 17 29.89 1012 10 16 N/A
8:53 pm 20:53 Sunny 65 18.3 52 11.1 63 63 SW 8 13 29.91 1013 10 16 N/A
9:53 pm 21:53 Clear 61 16.1 52 11.1 72 72 WNW 5 7 29.91 1013 10 16 N/A
10:53 pm 22:53 Clear 59 15 51 10.6 75 75 SW 6 9 29.91 1013 10 16 N/A
11:53 pm 23:53 Clear 56 13.3 49 9.4 77 77 S 8 13 29.90 1012 10 16 N/A

Powered by AerisWeather